DAL1702 KLAX-KMRY

Flight info

Callsign DAL1702
Flight time 0h 44m
Altitude 32000
Route SUMMR2 SCTRR WIGGL
Aircraft B772/H-SDE2E3FGHIJ5LORVWXY/LB1D1

Departure

Time 2026-04-21 23:56
Airport Los Angeles International Airport (KLAX)

Arrival

Time 2026-04-22 00:41
Airport Monterey Regional Airport (KMRY)
Time Latitude Longitude Altitude Speed Heading
2026-04-21 23:06 33.94808 -118.40068 130 ft 0 kts 227°
2026-04-21 23:49 33.94806 -118.40077 124 ft 4 kts 260°
2026-04-21 23:49 33.94817 -118.40103 128 ft 4 kts 305°
2026-04-21 23:49 33.94836 -118.40126 125 ft 4 kts 323°
2026-04-21 23:50 33.94841 -118.40118 127 ft 4 kts 62°
2026-04-21 23:50 33.94842 -118.40106 127 ft 0 kts 84°
2026-04-21 23:53 33.94850 -118.40093 126 ft 5 kts 39°
2026-04-21 23:53 33.94901 -118.40063 128 ft 13 kts 41°
2026-04-21 23:53 33.94938 -118.39970 126 ft 10 kts 67°
2026-04-21 23:54 33.94946 -118.39952 126 ft 0 kts 58°
2026-04-21 23:55 33.94994 -118.39926 125 ft 10 kts 354°
2026-04-21 23:55 33.95029 -118.39994 129 ft 10 kts 275°
2026-04-21 23:55 33.95022 -118.40174 126 ft 56 kts 264°
2026-04-21 23:55 33.94928 -118.41045 132 ft 150 kts 263°
2026-04-21 23:56 33.94811 -118.42506 650 ft 188 kts 261°
2026-04-21 23:56 33.94660 -118.44129 1632 ft 199 kts 263°
2026-04-21 23:56 33.94489 -118.45769 2271 ft 200 kts 263°
2026-04-21 23:56 33.94301 -118.47463 2791 ft 215 kts 265°
2026-04-21 23:57 33.94229 -118.49376 3255 ft 236 kts 267°
2026-04-21 23:57 33.94196 -118.51390 3982 ft 245 kts 266°
2026-04-21 23:57 33.94059 -118.53436 4906 ft 249 kts 263°
2026-04-21 23:57 33.93881 -118.55532 5793 ft 252 kts 262°
2026-04-21 23:58 33.93706 -118.57639 6734 ft 254 kts 261°
2026-04-21 23:58 33.93534 -118.59767 7593 ft 256 kts 261°
2026-04-21 23:58 33.93362 -118.61916 8478 ft 259 kts 261°
2026-04-21 23:58 33.93191 -118.64078 9378 ft 260 kts 261°
2026-04-21 23:59 33.93021 -118.66257 10256 ft 263 kts 261°
2026-04-21 23:59 33.92841 -118.68532 10651 ft 284 kts 262°
2026-04-21 23:59 33.92653 -118.70945 11336 ft 294 kts 262°
2026-04-21 23:59 33.92463 -118.73410 11909 ft 298 kts 262°
2026-04-22 00:00 33.92272 -118.75882 11984 ft 302 kts 262°
2026-04-22 00:00 33.92076 -118.78396 11994 ft 300 kts 262°
2026-04-22 00:00 33.91882 -118.80884 11991 ft 297 kts 262°
2026-04-22 00:00 33.91693 -118.83365 11993 ft 298 kts 263°
2026-04-22 00:01 33.91685 -118.85879 12564 ft 303 kts 269°
2026-04-22 00:01 33.91792 -118.88413 13797 ft 302 kts 269°
2026-04-22 00:01 33.91901 -118.90935 14903 ft 302 kts 269°
2026-04-22 00:01 33.91993 -118.93462 15948 ft 303 kts 269°
2026-04-22 00:02 33.92073 -118.96015 16960 ft 306 kts 269°
2026-04-22 00:02 33.92149 -118.98585 17990 ft 308 kts 269°
2026-04-22 00:02 33.92372 -119.01162 18782 ft 315 kts 279°
2026-04-22 00:02 33.93196 -119.03659 19557 ft 329 kts 292°
2026-04-22 00:03 33.94393 -119.05999 20387 ft 334 kts 295°
2026-04-22 00:03 33.95657 -119.08370 21259 ft 338 kts 295°
2026-04-22 00:03 33.96927 -119.10772 22120 ft 341 kts 295°
2026-04-22 00:03 33.98197 -119.13208 22976 ft 345 kts 294°
2026-04-22 00:04 33.99470 -119.15674 23811 ft 349 kts 294°
2026-04-22 00:04 34.00813 -119.18130 24449 ft 357 kts 300°
2026-04-22 00:04 34.02672 -119.20239 25040 ft 377 kts 314°
2026-04-22 00:04 34.04842 -119.22088 25625 ft 385 kts 315°
2026-04-22 00:05 34.07054 -119.23946 26310 ft 389 kts 315°
2026-04-22 00:05 34.09284 -119.25822 27040 ft 392 kts 315°
2026-04-22 00:05 34.11525 -119.27718 27746 ft 395 kts 314°
2026-04-22 00:05 34.13783 -119.29645 28335 ft 400 kts 314°
2026-04-22 00:06 34.16057 -119.31596 29010 ft 402 kts 314°
2026-04-22 00:06 34.18332 -119.33549 29856 ft 400 kts 314°
2026-04-22 00:06 34.20593 -119.35490 30646 ft 397 kts 313°
2026-04-22 00:06 34.22829 -119.37415 31403 ft 393 kts 313°
2026-04-22 00:07 34.25059 -119.39340 31997 ft 394 kts 313°
2026-04-22 00:07 34.27285 -119.41268 32105 ft 394 kts 313°
2026-04-22 00:07 34.29511 -119.43194 32109 ft 392 kts 313°
2026-04-22 00:08 34.34014 -119.47107 32122 ft 411 kts 314°
2026-04-22 00:08 34.36375 -119.49159 32121 ft 422 kts 314°
2026-04-22 00:08 34.38768 -119.51228 32114 ft 423 kts 314°
2026-04-22 00:09 34.43527 -119.55416 32098 ft 421 kts 313°
2026-04-22 00:09 34.48124 -119.59760 32105 ft 418 kts 312°
2026-04-22 00:10 34.52657 -119.64087 32106 ft 416 kts 311°
2026-04-22 00:10 34.57223 -119.68422 32089 ft 417 kts 312°
2026-04-22 00:11 34.61794 -119.72756 32090 ft 417 kts 312°
2026-04-22 00:11 34.66382 -119.77103 32081 ft 418 kts 312°
2026-04-22 00:12 34.70970 -119.81450 32092 ft 419 kts 312°
2026-04-22 00:12 34.75544 -119.85789 32108 ft 418 kts 312°
2026-04-22 00:12 34.77819 -119.87946 31908 ft 413 kts 312°
2026-04-22 00:13 34.80085 -119.90100 31422 ft 414 kts 312°
2026-04-22 00:13 34.82360 -119.92269 30797 ft 417 kts 312°
2026-04-22 00:13 34.84651 -119.94451 30255 ft 420 kts 312°
2026-04-22 00:13 34.86948 -119.96648 29663 ft 420 kts 312°
2026-04-22 00:14 34.89254 -119.98856 29023 ft 422 kts 312°
2026-04-22 00:14 34.91565 -120.01065 28400 ft 424 kts 312°
2026-04-22 00:14 34.93895 -120.03290 28211 ft 426 kts 312°
2026-04-22 00:14 34.96230 -120.05517 28093 ft 425 kts 313°
2026-04-22 00:15 34.98552 -120.07735 28108 ft 424 kts 312°
2026-04-22 00:15 35.03195 -120.12177 28093 ft 423 kts 312°
2026-04-22 00:16 35.07796 -120.16599 28089 ft 420 kts 312°
2026-04-22 00:16 35.12386 -120.21006 28108 ft 419 kts 312°
2026-04-22 00:17 35.16957 -120.25403 28104 ft 418 kts 312°
2026-04-22 00:17 35.21574 -120.29698 28108 ft 422 kts 314°
2026-04-22 00:18 35.26294 -120.33972 28091 ft 416 kts 314°
2026-04-22 00:18 35.30932 -120.38191 28117 ft 421 kts 313°
2026-04-22 00:19 35.35640 -120.42507 28092 ft 417 kts 314°
2026-04-22 00:19 35.40208 -120.46685 28075 ft 406 kts 313°
2026-04-22 00:20 35.44720 -120.50842 28100 ft 406 kts 313°
2026-04-22 00:20 35.49238 -120.55008 28119 ft 406 kts 313°
2026-04-22 00:21 35.53754 -120.59154 28118 ft 406 kts 314°
2026-04-22 00:21 35.58359 -120.63140 28121 ft 407 kts 315°
2026-04-22 00:22 35.63012 -120.67100 28118 ft 407 kts 315°
2026-04-22 00:22 35.67630 -120.71052 27621 ft 400 kts 314°
2026-04-22 00:22 35.69845 -120.72939 26646 ft 376 kts 314°
2026-04-22 00:23 35.71964 -120.74750 25200 ft 369 kts 314°
2026-04-22 00:23 35.74056 -120.76563 23920 ft 366 kts 314°
2026-04-22 00:23 35.76127 -120.78364 22538 ft 367 kts 314°
2026-04-22 00:23 35.78229 -120.80201 21674 ft 370 kts 314°
2026-04-22 00:24 35.80321 -120.82018 21115 ft 365 kts 314°
2026-04-22 00:24 35.82380 -120.83802 20612 ft 360 kts 315°
2026-04-22 00:24 35.84427 -120.85577 19997 ft 358 kts 315°
2026-04-22 00:24 35.86458 -120.87343 19365 ft 357 kts 315°
2026-04-22 00:25 35.88484 -120.89106 18749 ft 356 kts 315°
2026-04-22 00:25 35.90505 -120.90865 18133 ft 355 kts 315°
2026-04-22 00:25 35.92519 -120.92619 17443 ft 355 kts 316°
2026-04-22 00:25 35.94539 -120.94378 16755 ft 355 kts 317°
2026-04-22 00:26 35.96557 -120.96137 16153 ft 355 kts 317°
2026-04-22 00:26 35.98563 -120.97884 15593 ft 353 kts 318°
2026-04-22 00:26 36.00592 -120.99658 14737 ft 361 kts 319°
2026-04-22 00:26 36.02650 -121.01452 14133 ft 362 kts 319°
2026-04-22 00:27 36.04698 -121.03240 13631 ft 359 kts 320°
2026-04-22 00:27 36.06724 -121.05007 13124 ft 355 kts 320°
2026-04-22 00:27 36.08738 -121.06767 12547 ft 354 kts 320°
2026-04-22 00:27 36.10743 -121.08520 12044 ft 351 kts 320°
2026-04-22 00:28 36.12724 -121.10252 11526 ft 348 kts 320°
2026-04-22 00:28 36.14671 -121.11957 10997 ft 346 kts 320°
2026-04-22 00:28 36.16635 -121.13679 10469 ft 346 kts 320°
2026-04-22 00:28 36.18596 -121.15400 10234 ft 348 kts 320°
2026-04-22 00:29 36.20574 -121.17137 10113 ft 346 kts 320°
2026-04-22 00:29 36.22518 -121.18841 10106 ft 341 kts 320°
2026-04-22 00:29 36.24459 -121.20546 10099 ft 343 kts 320°
2026-04-22 00:29 36.26410 -121.22263 10109 ft 345 kts 320°
2026-04-22 00:30 36.28370 -121.23988 10102 ft 345 kts 320°
2026-04-22 00:30 36.30323 -121.25709 10094 ft 343 kts 321°
2026-04-22 00:30 36.32268 -121.27422 10096 ft 343 kts 321°
2026-04-22 00:30 36.34207 -121.29130 10096 ft 342 kts 321°
2026-04-22 00:31 36.36137 -121.30831 10099 ft 336 kts 321°
2026-04-22 00:31 36.37968 -121.32439 10074 ft 303 kts 320°
2026-04-22 00:31 36.39617 -121.33889 10087 ft 285 kts 320°
2026-04-22 00:31 36.41211 -121.35298 10067 ft 278 kts 320°
2026-04-22 00:32 36.42736 -121.36742 9837 ft 276 kts 313°
2026-04-22 00:32 36.44100 -121.38435 9392 ft 277 kts 308°
2026-04-22 00:32 36.45410 -121.40196 8971 ft 279 kts 308°
2026-04-22 00:32 36.46730 -121.41976 8563 ft 281 kts 308°
2026-04-22 00:33 36.48070 -121.43759 8173 ft 284 kts 309°
2026-04-22 00:33 36.49407 -121.45518 7769 ft 279 kts 309°
2026-04-22 00:33 36.50702 -121.47204 7321 ft 260 kts 309°
2026-04-22 00:33 36.51907 -121.48766 6958 ft 242 kts 309°
2026-04-22 00:34 36.53032 -121.50223 6622 ft 225 kts 309°
2026-04-22 00:34 36.54073 -121.51573 6313 ft 208 kts 309°
2026-04-22 00:34 36.55039 -121.52824 6048 ft 193 kts 308°
2026-04-22 00:34 36.55942 -121.53996 5783 ft 184 kts 307°
2026-04-22 00:35 36.56833 -121.55155 5504 ft 189 kts 308°
2026-04-22 00:35 36.57668 -121.56419 5211 ft 186 kts 288°
2026-04-22 00:35 36.57779 -121.57952 4965 ft 178 kts 252°
2026-04-22 00:35 36.57367 -121.59389 4699 ft 177 kts 249°
2026-04-22 00:36 36.56956 -121.60830 4450 ft 176 kts 249°
2026-04-22 00:36 36.56553 -121.62249 4176 ft 172 kts 249°
2026-04-22 00:36 36.56409 -121.63692 3968 ft 172 kts 275°
2026-04-22 00:36 36.56601 -121.65158 3702 ft 176 kts 272°
2026-04-22 00:37 36.56722 -121.66676 3407 ft 172 kts 272°
2026-04-22 00:37 36.56831 -121.68094 3138 ft 160 kts 272°
2026-04-22 00:37 36.56936 -121.69450 2860 ft 154 kts 273°
2026-04-22 00:37 36.57044 -121.70814 2619 ft 162 kts 275°
2026-04-22 00:38 36.57158 -121.72203 2352 ft 159 kts 276°
2026-04-22 00:38 36.57268 -121.73541 2079 ft 150 kts 278°
2026-04-22 00:38 36.57331 -121.74808 1961 ft 146 kts 271°
2026-04-22 00:38 36.57326 -121.76096 1897 ft 149 kts 269°
2026-04-22 00:39 36.57320 -121.77405 1569 ft 147 kts 271°
2026-04-22 00:39 36.57393 -121.78642 1323 ft 139 kts 276°
2026-04-22 00:39 36.57534 -121.79796 1177 ft 132 kts 278°
2026-04-22 00:39 36.57722 -121.80906 989 ft 132 kts 279°
2026-04-22 00:40 36.57939 -121.82028 590 ft 132 kts 282°
2026-04-22 00:40 36.58245 -121.83125 326 ft 133 kts 284°
2026-04-22 00:40 36.58608 -121.84152 237 ft 116 kts 280°
2026-04-22 00:40 36.58838 -121.84864 218 ft 57 kts 293°
2026-04-22 00:41 36.58900 -121.85016 212 ft 30 kts 312°
2026-04-22 00:41 36.58956 -121.85048 206 ft 1 kts 356°
2026-04-22 00:41 36.58957 -121.85048 206 ft 0 kts 356°
2026-04-22 00:42 36.58969 -121.85053 205 ft 13 kts 341°
2026-04-22 00:42 36.59080 -121.85053 216 ft 20 kts 27°
2026-04-22 00:43 36.59133 -121.84982 219 ft 0 kts 67°